STARLINK-31086 (58626 NORAD) Tracking and Keplerian Element Data

This shows tracking and keplerian element data for the satellite.

Feedback or suggestion? Click here.




ElementValue
Catalog58626
NameSTARLINK-31086
Epoch Orbit456
Epoch Day13.25002315
Epoch Year2024
RAAN183.7375
Inclination43.0012
Eccentricity0.0001586
Argument of Perigee261.4706
Mean Anonmoly5.2961
Mean Motion15.52637299
Decay Rate-0.01741227
L11 58626U 23203J 24013.25002315 -.01741227 00000+0 -30925-1 0 9990
L22 58626 43.0012 183.7375 0001586 261.4706 5.2961 15.52637299 4566



Live tracking and technical data element details for STARLINK-31086 (NORAD 58626). STARLINK-31086 can be tracked NOW for your location showing map with azimuth and elevation plus other details from your city location.







IsCatalogInMostPopularTable: catalog: 58626, numindb: 25
Update: records affected: 1



GetName: 58626 STARLINK-31086

Hit Count: updated at: Wed, 17 Apr 2024 02:30:04 GMT